Location: Unspecified
(52.4292°N, 19.3359°E)
Time: 01:20:00
(UTC+02:00)

Altair - Pass Details

Date: 19 May 2024
Orbit: 1502 x 1682 km, 47.2° (Epoch: 20 June)

Event Time Altitude Azimuth Distance (km) Brightness Sun altitude
Rises 15:33:59 0° 273° (W) 4,913 10.8 43.2°
Reaches altitude 10° 15:37:10 10° 270° (W) 3,936 10.6 42.8°
Maximum altitude 15:47:05 62° 194° (SSW) 1,858 9.0 41.4°
Drops below altitude 10° 15:56:57 10° 117° (ESE) 3,914 9.4 40.0°
Sets 16:00:07 0° 114° (ESE) 4,885 9.8 39.6°
